[[{"header":{"parameterUnit":"m.s-1","parameterCategory":1,"la1":30.2991,"la2":30.254,"lo1":-89.0895,"lo2":-89.0444,"dy":0.0017,"dx":0.0017,"nx":28,"ny":28,"refTime":"2024-05-22T21:00:00:Z","depth":0,"parameterNumber":2,"parameterNumberName":"U-component_of_WINDS"},"data":[0,0,0,0,0,0,0,0,0,0,0,0,0,0,0,0,0,0,0,0,0,0,0,0,0,0,0,0,0,0,0,0,0,0,0,0,0,0,0,0,0,0,0,0,0,0,0,0,0,0,0,0,0,0,0,0,0,0,0.2864,0.2865,0,0.2881,0.2881,0.2881,0.2873,0.2873,0.2873,0.2872,0.289,0.2891,0.2892,0,0,0,0,0,0,0,0,0,0,0,0,0,0.2827,0.2828,0.2864,0.2865,0.2865,0.2881,0.2881,0.2881,0.2874,0.2873,0.2873,0.2872,0.289,0.2891,0.2892,0,0,0,0,0,0,0,0,0,0,0,0,0,0.2844,0.2828,0.2864,0.2863,0.2863,0.2881,0.2881,0.2881,0.2874,0.2873,0.2872,0.2872,0.289,0.2891,0.2892,0.2913,0,0,0.2896,0.2897,0,0,0,0,0,0,0,0,0.2843,0.2845,0.2863,0.2863,0.2863,0.2874,0.2874,0.2892,0.2874,0.287,0.2872,0.2871,0.2886,0.2887,0.2892,0.2914,0.2915,0.2897,0.2897,0.2898,0.2898,0,0,0,0,0,0,0,0.2842,0.2844,0.2871,0.2863,0.2863,0.2862,0.2863,0.2878,0.2881,0.287,0.2869,0.2871,0.2886,0.2891,0.2892,0.2915,0.2896,0.2898,0.2898,0.2899,0.2953,0.2954,0,0,0,0,0,0,0.284,0.2843,0.287,0.2871,0.2851,0.2863,0.2865,0.2871,0.2881,0.2882,0.2872,0.2871,0.2889,0.2891,0.2893,0.2917,0.2898,0.2899,0.29,0.2953,0.2953,0.2954,0,0,0,0,0,0,0.284,0.2843,0.287,0.2857,0.286,0.2864,0.2872,0.2872,0.2877,0.2882,0.2883,0.2876,0.2888,0.2891,0.2908,0.2917,0.29,0.2901,0.2952,0.2953,0.2954,0.2965,0,0,0,0,0,0,0.2838,0.2843,0.285,0.2857,0.2861,0.2884,0.2872,0.2873,0.2879,0.2878,0.2887,0.2887,0.2888,0.2906,0.2909,0.2919,0.2902,0.2951,0.2952,0.2953,0.2964,0.2966,0.2968,0,0,0,0,0,0.2837,0.2853,0.2851,0.2854,0.2871,0.2885,0.2887,0.2887,0.288,0.2888,0.2891,0.2887,0.2916,0.2907,0.2911,0.2921,0.295,0.2952,0.2953,0.2963,0.2966,0.2968,0,0,0,0,0,0,0.2848,0.2854,0.2852,0.2871,0.2877,0.2883,0.2893,0.289,0.2899,0.2898,0.2898,0.29,0.2917,0.2921,0.2912,0.2941,0.2932,0.2934,0.2938,0.2941,0.2943,0.2941,0.2903,0,0,0,0,0,0.2853,0.2863,0.2868,0.2884,0.2888,0.289,0.2896,0.2895,0.2902,0.2905,0.291,0.2917,0.2927,0.2934,0.2944,0.2964,0.2966,0.2973,0.2975,0.2977,0.2979,0.2989,0.2992,0.2959,0.2959,0.2959,0,0,0.2863,0.2867,0.2874,0.2887,0.2892,0.2902,0.2892,0.2905,0.2912,0.2907,0.2923,0.2926,0.2934,0.2952,0.296,0.2956,0.2988,0.2979,0.298,0.2981,0.299,0.2994,0.2996,0.296,0.296,0.296,0,0,0.2886,0.289,0.2904,0.2909,0.2916,0.2917,0.292,0.2927,0.2929,0.2944,0.294,0.295,0.2968,0.2973,0.2979,0.3002,0.2999,0.3006,0.3018,0.3027,0.303,0.3032,0.304,0.3042,0.3008,0.3008,0.3008,0,0.2897,0.2912,0.2911,0.2923,0.2929,0.2923,0.2937,0.2942,0.2952,0.2956,0.2951,0.2973,0.2978,0.2997,0.3002,0.3007,0.301,0.3005,0.3029,0.3031,0.3034,0.3041,0.3044,0.3008,0.3008,0.3008,0.3008,0,0.2925,0.2936,0.2946,0.2955,0.2962,0.2975,0.2976,0.2983,0.2981,0.2983,0.2998,0.3004,0.3014,0.3019,0.3018,0.3037,0.3034,0.3029,0.302,0.3037,0.3044,0.3047,0.3009,0.3009,0.3009,0.3009,0,0,0.2956,0.2964,0.2967,0.2971,0.2978,0.2987,0.2999,0.3008,0.3014,0.3021,0.3031,0.3046,0.3041,0.3047,0.3047,0.3055,0.3072,0.3049,0.3049,0.3052,0.3093,0.3096,0.3099,0.307,0.307,0.3071,0.3092,0,0.2979,0.3,0.2999,0.3018,0.3028,0.3023,0.3033,0.3039,0.304,0.3049,0.3051,0.3061,0.3054,0.3058,0.3066,0.3068,0.308,0.3067,0.3079,0.3079,0.3077,0.3103,0.3107,0.3126,0.3094,0.3095,0.3095,0,0.3009,0.3016,0.3036,0.304,0.3045,0.3054,0.3062,0.307,0.3076,0.3077,0.3083,0.308,0.3093,0.3083,0.3099,0.309,0.3095,0.3097,0.3098,0.3099,0.3088,0.3104,0.3132,0.3135,0.31,0.3099,0.3099,0,0.3028,0.3043,0.3056,0.306,0.3066,0.3072,0.3075,0.308,0.3086,0.3093,0.3096,0.3105,0.311,0.3117,0.3117,0.311,0.3133,0.3124,0.3134,0.3134,0.3139,0.3138,0.3168,0.3143,0.3143,0.3143,0.3143,0,0.3053,0.3066,0.3065,0.3073,0.3087,0.3085,0.3099,0.3101,0.3106,0.3114,0.3111,0.3119,0.3119,0.3127,0.3127,0.314,0.3143,0.3143,0.3143,0.3143,0.3143,0.3146,0.3145,0.3144,0.3143,0.3143,0.3143,0,0.3077,0.3077,0.3092,0.3096,0.3097,0.3107,0.311,0.3118,0.3119,0.313,0.3132,0.3134,0.3144,0.3144,0.3156,0.3156,0.3171,0.317,0.3169,0.3169,0.3178,0.3177,0.321,0.3214,0.3187,0.3187,0.3188,0,0.3093,0.3102,0.3107,0.3112,0.3115,0.3124,0.3129,0.3128,0.3133,0.314,0.3147,0.3156,0.3163,0.3178,0.318,0.3189,0.3187,0.3198,0.3189,0.3188,0.3187,0.3186,0.3186,0.32,0.3201,0.3201,0.3201,0,0.3121,0.312,0.3128,0.3135,0.3141,0.3146,0.3152,0.3156,0.3156,0.3162,0.3171,0.3176,0.3187,0.3196,0.3204,0.3207,0.3204,0.3204,0.3207,0.3207,0.3205,0.3205,0.3174,0.3203,0.3203,0.3203,0.3203,0.3203,0.3141,0.3148,0.3152,0.316,0.3164,0.3169,0.3176,0.3177,0.3185,0.3193,0.3192,0.3202,0.3207,0.3217,0.3221,0.3228,0.3225,0.3229,0.323,0.323,0.3231,0.3204,0.323,0.323,0.323,0.323,0.323,0,0.3168,0.317,0.3177,0.3184,0.319,0.3186,0.3191,0.3197,0.3206,0.321,0.3217,0.3227,0.3235,0.3238,0.3246,0.3251,0.325,0.3253,0.3253,0.3253,0.3234,0.3231,0.3254,0.3254,0.3254,0.3254,0.3254,0.3254,0.3183,0.3195,0.3194,0.3208,0.321,0.3219,0.3222,0.3227,0.323,0.3241,0.3248,0.3249,0.3253,0.3261,0.3268,0.3268,0.3271,0.3275,0.3275,0.3257,0.3255,0.3252,0.3249,0.3276,0.3276,0.3293,0.3293,0.3294]},{"header":{"parameterUnit":"m.s-1","parameterCategory":1,"la1":30.2991,"la2":30.254,"lo1":-89.0895,"lo2":-89.0444,"dy":0.0017,"dx":0.0017,"nx":28,"ny":28,"refTime":"2024-05-22T21:00:00:Z","depth":0,"parameterNumber":3,"parameterNumberName":"V-component_of_WINDS"},"data":[0,0,0,0,0,0,0,0,0,0,0,0,0,0,0,0,0,0,0,0,0,0,0,0,0,0,0,0,0,0,0,0,0,0,0,0,0,0,0,0,0,0,0,0,0,0,0,0,0,0,0,0,0,0,0,0,0,0,3.6015,3.6016,0,3.605,3.6051,3.6051,3.6022,3.6021,3.6019,3.6018,3.6051,3.6053,3.6055,0,0,0,0,0,0,0,0,0,0,0,0,0,3.5919,3.5921,3.6015,3.6016,3.6016,3.605,3.6051,3.6051,3.6022,3.6021,3.6019,3.6018,3.605,3.6053,3.6055,0,0,0,0,0,0,0,0,0,0,0,0,0,3.5958,3.5922,3.6015,3.6006,3.6005,3.605,3.6051,3.6051,3.6022,3.6021,3.6019,3.6017,3.6049,3.6052,3.6055,3.611,0,0,3.6064,3.6066,0,0,0,0,0,0,0,0,3.5956,3.5962,3.6007,3.6006,3.6006,3.603,3.6029,3.6071,3.6023,3.6016,3.6018,3.6016,3.6045,3.6048,3.6059,3.6112,3.6113,3.6065,3.6067,3.6068,3.6069,0,0,0,0,0,0,0,3.5954,3.596,3.6029,3.6007,3.6007,3.5999,3.6002,3.6037,3.604,3.6016,3.6014,3.6019,3.6045,3.6056,3.6059,3.6114,3.6065,3.6067,3.6069,3.607,3.6213,3.6214,0,0,0,0,0,0,3.5952,3.5958,3.6028,3.603,3.5976,3.6002,3.6006,3.6024,3.604,3.604,3.602,3.6017,3.6052,3.6056,3.606,3.6125,3.6068,3.6071,3.6072,3.6211,3.6213,3.6215,0,0,0,0,0,0,3.595,3.5959,3.6026,3.5994,3.6002,3.6005,3.6026,3.6026,3.6037,3.6043,3.6043,3.6032,3.6051,3.6056,3.6098,3.6126,3.6072,3.6075,3.6208,3.6211,3.6214,3.6256,0,0,0,0,0,0,3.5948,3.5958,3.598,3.5994,3.6003,3.6065,3.6028,3.6028,3.6043,3.6039,3.6054,3.6054,3.605,3.6094,3.6101,3.6129,3.6077,3.6206,3.621,3.6213,3.6252,3.626,3.6267,0,0,0,0,0,3.5944,3.599,3.5981,3.599,3.6031,3.6066,3.6071,3.6066,3.6045,3.6066,3.607,3.6054,3.6122,3.6098,3.6106,3.6136,3.6204,3.6209,3.6213,3.6249,3.6259,3.6267,0,0,0,0,0,0,3.5977,3.5991,3.5982,3.6034,3.6049,3.6061,3.6088,3.6077,3.6097,3.6093,3.6085,3.6088,3.6132,3.6138,3.6112,3.6189,3.6159,3.6166,3.6184,3.6193,3.6201,3.6198,3.608,0,0,0,0,0,3.5991,3.602,3.603,3.6074,3.6083,3.6084,3.6099,3.6094,3.6109,3.6115,3.6122,3.6137,3.6161,3.6178,3.6201,3.6253,3.6255,3.6277,3.6284,3.629,3.6296,3.6323,3.6333,3.623,3.623,3.623,0,0,3.6018,3.603,3.6048,3.6081,3.6093,3.6122,3.609,3.6122,3.6143,3.612,3.616,3.6166,3.6181,3.6229,3.625,3.6235,3.6325,3.6296,3.6301,3.6303,3.6329,3.6339,3.6348,3.6233,3.6232,3.6232,0,0,3.6084,3.6096,3.6134,3.6146,3.6164,3.6165,3.6174,3.6188,3.6191,3.6232,3.6215,3.6239,3.6282,3.6294,3.6306,3.6375,3.6361,3.6383,3.6421,3.6448,3.6457,3.6464,3.6488,3.6497,3.6388,3.6389,3.6389,0,3.6115,3.616,3.6155,3.6188,3.6203,3.6184,3.6223,3.6234,3.6258,3.6268,3.6252,3.6305,3.6314,3.6364,3.6381,3.6391,3.6401,3.6381,3.6456,3.6463,3.647,3.6493,3.6502,3.6391,3.6391,3.6391,3.639,0,3.6198,3.6229,3.6257,3.6282,3.63,3.6336,3.6335,3.6353,3.6346,3.6349,3.639,3.64,3.6425,3.6436,3.6429,3.6485,3.6475,3.6457,3.6427,3.6482,3.6504,3.6513,3.6395,3.6394,3.6393,3.6392,0,0,3.6285,3.6307,3.6317,3.6329,3.6347,3.637,3.6405,3.643,3.6446,3.6463,3.6491,3.6528,3.6511,3.6525,3.6519,3.6543,3.6597,3.6522,3.6522,3.6535,3.6658,3.6671,3.6682,3.6587,3.6589,3.6591,3.6657,0,3.635,3.6412,3.6408,3.6465,3.6493,3.6476,3.6506,3.652,3.6523,3.6546,3.6548,3.6575,3.6552,3.6559,3.6582,3.6586,3.6621,3.6581,3.6612,3.6614,3.6609,3.6693,3.6707,3.6769,3.6665,3.6667,3.6668,0,3.6436,3.6457,3.6518,3.6532,3.6544,3.6571,3.6593,3.6616,3.6631,3.6632,3.6647,3.6637,3.667,3.6639,3.6685,3.6657,3.667,3.6674,3.6676,3.6678,3.6644,3.6698,3.6789,3.6798,3.6681,3.668,3.6679,0,3.6493,3.6537,3.6578,3.6588,3.6606,3.6626,3.6634,3.6647,3.6663,3.6682,3.6692,3.6715,3.6727,3.6744,3.6741,3.6719,3.6787,3.6756,3.6787,3.6788,3.6802,3.6801,3.6897,3.6811,3.6811,3.6811,3.6811,0,3.6567,3.6604,3.6604,3.663,3.6671,3.6666,3.6706,3.6712,3.6724,3.675,3.6736,3.676,3.6754,3.6777,3.6774,3.6812,3.6818,3.6818,3.6817,3.6819,3.6819,3.6827,3.6823,3.6813,3.6813,3.6812,3.6812,0,3.6637,3.6639,3.6683,3.6697,3.6701,3.6731,3.6742,3.6766,3.6768,3.68,3.6807,3.681,3.6837,3.6835,3.6865,3.6863,3.691,3.6903,3.6905,3.6903,3.6935,3.6932,3.7039,3.7052,3.6958,3.6959,3.696,0,3.6684,3.6713,3.673,3.6747,3.6757,3.6784,3.68,3.6795,3.6812,3.6832,3.6853,3.6879,3.6899,3.6943,3.6947,3.6969,3.6963,3.6999,3.6966,3.6968,3.6963,3.6962,3.6964,3.7005,3.7006,3.7007,3.7008,0,3.6768,3.6767,3.6792,3.6816,3.6836,3.6855,3.6872,3.6886,3.6883,3.6903,3.6931,3.6947,3.6978,3.7004,3.7025,3.7032,3.702,3.7018,3.7027,3.7029,3.7029,3.7029,3.6922,3.7016,3.7015,3.7014,3.7014,3.7014,3.6828,3.6852,3.6869,3.6896,3.6909,3.6925,3.6948,3.6953,3.6977,3.7003,3.6998,3.7029,3.7043,3.7071,3.708,3.7104,3.7091,3.7103,3.7106,3.7109,3.7113,3.7026,3.7108,3.7107,3.7107,3.7107,3.7107,0,3.691,3.692,3.6945,3.697,3.6992,3.6979,3.6997,3.7016,3.7044,3.7058,3.7079,3.7111,3.7135,3.7141,3.7165,3.7182,3.7177,3.7189,3.7187,3.7189,3.7123,3.7114,3.7193,3.7193,3.7193,3.7193,3.7193,3.7193,3.6955,3.6996,3.6998,3.7045,3.7053,3.7085,3.7097,3.7111,3.7123,3.7159,3.718,3.7185,3.7195,3.7219,3.7241,3.7242,3.7251,3.7265,3.7264,3.7202,3.7194,3.7185,3.7176,3.7267,3.7267,3.7327,3.7328,3.7328]}]]